Change the Weather History Date:

Wednesday, October 2, 2013

  Actual Average Record
Temperature  
Mean Temperature 44 °F 48 °F  
Max Temperature 55 °F 62 °F 85 °F (1963)
Min Temperature 32 °F 35 °F 15 °F (1925)
Degree Days  
Heating Degree Days 21 17  
Month to date heating degree days 40 34  
Since 1 July heating degree days 335 571  
Cooling Degree Days 0 0  
Month to date cooling degree days 0 0  
Year to date cooling degree days 226 161  
Moisture  
Dew Point 24 °F    
Average Humidity 51    
Maximum Humidity 75    
Minimum Humidity 26    
Precipitation  
Precipitation 0.00 in 0.02 in 0.69 in (1946)
Month to date precipitation 0.00 0.05  
Year to date precipitation 13.31 9.93  
Snow  
Snow 0.00 in - - ()
Snow Depth 0.00 in    
Sea Level Pressure  
Sea Level Pressure 30.06 in    
Wind  
Wind Speed 10 mph (WNW)    
Max Wind Speed 21 mph    
Max Gust Speed 24 mph    
Visibility 10 miles    
Events      
T = Trace of Precipitation, MM = Missing Value Source: NWS Daily Summary

Daily Weather History Graph

Daily Weather History Graph

Search for Another Location

Airport or City:

Trip Planner

Search our weather history database for the weather conditions in past years. The results will help you decide how hot, cold, wet, or windy it might be!

Date:

Astronomy

Oct. 02, 2013 Rise Set
Actual Time 7:30 AM MDT 7:05 PM MDT
Civil Twilight 6:59 AM MDT 7:36 PM MDT
Nautical Twilight 6:23 AM MDT 8:13 PM MDT
Astronomical Twilight 5:45 AM MDT 8:50 PM MDT
Moon 4:58 AM MDT (10/2) 5:50 PM MDT (10/2)
Length of Visible Light 12h 37m
Length of Day
11h 34m
Waning Crescent, 6% of the Moon is Illuminated
Oct 2
Waning Crescent
Oct 4
New
Oct 11
First Quarter
Oct 18
Full
Oct 26
Last Quarter

Hourly Weather History & Observations

Time (MDT) Temp. Windchill Dew Point Humidity Pressure Visibility Wind Dir Wind Speed Gust Speed Precip Events Conditions
12:56 AM 37.9 °F 30.5 °F 28.9 °F 70% 29.99 in 10.0 mi WSW 11.5 mph - N/A   Clear
1:56 AM 39.9 °F 32.5 °F 28.0 °F 63% 29.99 in 10.0 mi WSW 12.7 mph - N/A   Partly Cloudy
2:56 AM 37.9 °F 30.0 °F 27.0 °F 65% 30.01 in 10.0 mi WSW 12.7 mph - N/A   Clear
3:56 AM 36.0 °F 27.1 °F 28.0 °F 73% 30.02 in 10.0 mi WSW 13.8 mph - N/A   Clear
4:56 AM 34.0 °F 26.0 °F 27.0 °F 75% 30.04 in 10.0 mi WSW 10.4 mph - N/A   Clear
5:56 AM 33.1 °F 25.5 °F 26.1 °F 75% 30.06 in 10.0 mi West 9.2 mph - N/A   Clear
6:56 AM 33.1 °F 27.7 °F 26.1 °F 75% 30.09 in 10.0 mi West 5.8 mph - N/A   Clear
7:56 AM 34.0 °F 27.2 °F 26.1 °F 73% 30.11 in 10.0 mi WSW 8.1 mph - N/A   Clear
8:56 AM 41.0 °F 33.9 °F 28.9 °F 62% 30.10 in 10.0 mi WSW 12.7 mph - N/A   Clear
9:56 AM 46.0 °F 39.0 °F 27.0 °F 47% 30.09 in 10.0 mi WSW 17.3 mph 21.9 mph N/A   Clear
10:56 AM 48.9 °F - 24.1 °F 38% 30.09 in 10.0 mi West 12.7 mph - N/A   Clear
11:56 AM 50.0 °F - 21.0 °F 32% 30.08 in 10.0 mi West 6.9 mph - N/A   Clear
12:56 PM 51.1 °F - 19.9 °F 29% 30.07 in 10.0 mi Variable 4.6 mph - N/A   Clear
1:56 PM 54.0 °F - 19.0 °F 25% 30.04 in 10.0 mi West 12.7 mph 18.4 mph N/A   Partly Cloudy
2:56 PM 54.0 °F - 19.9 °F 26% 30.04 in 10.0 mi North 6.9 mph - N/A   Partly Cloudy
3:56 PM 52.0 °F - 19.0 °F 27% 30.04 in 10.0 mi Variable 3.5 mph - N/A   Partly Cloudy
4:56 PM 52.0 °F - 19.9 °F 28% 30.04 in 10.0 mi NNE 11.5 mph - N/A   Scattered Clouds
5:56 PM 50.0 °F - 19.9 °F 31% 30.06 in 10.0 mi North 10.4 mph - N/A   Overcast
6:56 PM 46.9 °F - 19.9 °F 34% 30.07 in 10.0 mi NE 12.7 mph - N/A   Overcast
7:56 PM 43.0 °F 36.4 °F 21.0 °F 42% 30.09 in 10.0 mi NE 12.7 mph - N/A   Mostly Cloudy
8:56 PM 39.9 °F 33.9 °F 23.0 °F 51% 30.10 in 10.0 mi NNE 9.2 mph - N/A   Mostly Cloudy
9:56 PM 42.1 °F 34.2 °F 27.0 °F 55% 30.09 in 10.0 mi NE 16.1 mph - N/A   Overcast
10:56 PM 39.9 °F 32.1 °F 28.0 °F 63% 30.09 in 10.0 mi NE 13.8 mph - N/A   Scattered Clouds
11:56 PM 39.0 °F 32.3 °F 28.9 °F 67% 30.10 in 10.0 mi NE 10.4 mph - N/A   Overcast